Regional Weather Roundup
Issued by NWS

Home | Current Version | Previous Version | Text Only | Print | Product List | Glossary Off
Versions: 1 2 3 4 5 6 7 8 9 10 11 12 13 14 15 16 17 18 19 20 21 22 23 24 25 26 27 28 29 30 31 32 33 34 35 36 37 38 39 40 41 42 43 44 45 46 47 48 49 50

000
ASUS43 KIND 031459
RWRIN

WEATHER ROUNDUP FOR INDIANA
NATIONAL WEATHER SERVICE INDIANAPOLIS IN
1100 AM EDT SUN MAY 03 2015

NOTE: "FAIR" INDICATES FEW OR NO CLOUDS BELOW 12,000 FEET WITH NO
SIGNIFICANT WEATHER AND/OR OBSTRUCTIONS TO VISIBILITY.

* - STATION DOES NOT REPORT WEATHER SUCH AS PRECIPITATION OR FOG.

+ - STATION NOT QUALITY CONTROLLED BY THE NATIONAL WEATHER SERVICE.
    USE DATA WITH CAUTION...ESPECIALLY DEWPOINT AND RELATIVE
    HUMIDITY OBSERVATIONS.

INZ001>003-010>013-019-020-031600-
NORTHWEST INDIANA

CITY           SKY/WX    TMP DP  RH WIND       PRES   REMARKS
GARY /AIRPORT/ PTSUNNY   73 N/A N/A S15       30.00S

$$

LMZ046-743>745-031600-
SOUTHERN LAKE MICHIGAN

STATION/POSITION TIME  TEMP    WIND        PRES    WAVE
                       AIR SEA DIR/SP/G            HT
                 (UTC) (F)     (DEG/KT/KT) (MB)    (FT)
BURNS HARBOR     1400   68     190/ 14/ 21 1016.3F
MICHIGAN CITY    1400   66     160/ 10/ 12   N/A
5NW MICH CITY    1400   60 50  190/  8/ 10   N/A     1

$$

INZ004-005-014>016-021>024-031600-
NORTH CENTRAL INDIANA

CITY           SKY/WX    TMP DP  RH WIND       PRES   REMARKS
GOSHEN         SUNNY     71  48  43 SW13      30.05S
SOUTH BEND     PTSUNNY   72  42  34 SW12      30.03F

$$

INZ006>009-017-018-025>027-031600-
NORTHEAST INDIANA

CITY           SKY/WX    TMP DP  RH WIND       PRES   REMARKS
ANGOLA *+      SUNNY     72  64  78 SW12      30.05F
FORT WAYNE     MOSUNNY   71  47  42 SW12      30.08F

$$

INZ028-029-035-036-043>045-051>053-031600-
WEST CENTRAL INDIANA

CITY           SKY/WX    TMP DP  RH WIND       PRES   REMARKS
CRAWFORDSVL +  MOSUNNY   70  38  31 S13G21    30.08S
GREENCASTLE +  MOSUNNY   70  43  37 S8        30.09S
LAFAYETTE      MOSUNNY   70  47  43 SW12      30.05S
TERRE HAUTE    SUNNY     72  49  44 S12       30.08S

$$

INZ030>032-037>040-046>048-054>057-064-065-031600-
CENTRAL INDIANA

CITY           SKY/WX    TMP DP  RH WIND       PRES   REMARKS
INDIANAPOLIS   PTSUNNY   66  49  54 SW10      30.08S
-EAGLE CREEK   CLOUDY    65  48  54 S6        30.09S
MT COMFORT *+  SUNNY     68  36  30 SW7       30.11R
SHELBYVILLE    PTSUNNY   71  50  47 S10       30.10F

$$

INZ033-034-041-042-049-050-058-059-031600-
EAST CENTRAL INDIANA

CITY           SKY/WX    TMP DP  RH WIND       PRES   REMARKS
MUNCIE         CLOUDY    70  47  43 W12       30.09F

$$

INZ060-061-067>069-081>083-085>088-031600-
SOUTHWEST INDIANA

CITY           SKY/WX    TMP DP  RH WIND       PRES   REMARKS
EVANSVILLE     PTSUNNY   70  49  47 S8        30.11S
HUNTINGBURG *+ MOSUNNY   68  52  56 S9        30.12R

$$

INZ062-063-066-070>080-084-089>092-031600-
SOUTH CENTRAL AND SOUTHEAST INDIANA

CITY           SKY/WX    TMP DP  RH WIND       PRES   REMARKS
BLOOMINGTON    MOSUNNY   71  48  43 S8        30.10F
MADISON *+     MOSUNNY   64  48  55 CALM      30.15S

$$



USA.gov is the U.S. government's official web portal to all federal, state and local government web resources and services.